Location: Famechon
(49.7599°N, 2.0615°E)
Time: 00:28:00
(UTC+00:00)

Cosmos 2333 Rocket - Pass Details

Date: 03 February 2023
Orbit: 838 x 864 km, 70.8° (Epoch: 21 March)

Event Time Altitude Azimuth Distance (km) Brightness Sun altitude
Rises 18:11:55 0° 176° (S) 3,378 5.4 -13.5°
Reaches altitude 10° 18:14:34 10° 167° (SSE) 2,451 4.6 -13.9°
Maximum altitude 18:19:29 32° 106° (ESE) 1,414 2.9 -14.7°
Enters shadow 18:22:25 20° 59° (ENE) 1,862 3.4 -15.2°
